This is the latest recevied weather packets stored in our database for station/object N3EYQ. If no packets are shown the sender has not sent any weather packets the latest 10 day(s).
| Time | Temp. | Humidity | Pressure | Rain* | Wind** | Luminosity | Snow |
|---|---|---|---|---|---|---|---|
| 1777528744 | 8.89° C | 83% | 1008.9 hPa | 0 mm | - | - | - |
| 1777528144 | 8.89° C | 83% | 1009.3 hPa | 0 mm | - | - | - |
| 1777527544 | 8.89° C | 83% | 1009.3 hPa | 0 mm | - | - | - |
| 1777526943 | 8.89° C | 84% | 1009.3 hPa | 0 mm | - | - | - |
| 1777526343 | 8.89° C | 82% | 1009.3 hPa | 0 mm | - | - | - |
| 1777525743 | 8.89° C | 83% | 1009.6 hPa | 0 mm | - | - | - |
| 1777525143 | 8.89° C | 82% | 1009.3 hPa | 0 mm | - | - | - |
| 1777524543 | 8.89° C | 82% | 1009.6 hPa | 0 mm | - | - | - |
| 1777523944 | 8.89° C | 82% | 1009.3 hPa | 0 mm | - | - | - |
| 1777523343 | 8.89° C | 84% | 1009.6 hPa | 0 mm | - | - | - |
| 1777522743 | 8.89° C | 83% | 1009.6 hPa | 0 mm | - | - | - |
| 1777522143 | 8.89° C | 80% | 1010 hPa | 0 mm | - | - | - |
| 1777521543 | 8.89° C | 80% | 1010 hPa | 0 mm | - | - | - |
| 1777520942 | 8.89° C | 80% | 1010 hPa | 0 mm | - | - | - |
| 1777520343 | 8.89° C | 80% | 1010.3 hPa | 0 mm | - | - | - |
| 1777519742 | 8.89° C | 79% | 1010.3 hPa | 0 mm | - | - | - |
| 1777519142 | 9.44° C | 81% | 1010.3 hPa | 0 mm | - | - | - |
| 1777518542 | 9.44° C | 80% | 1010.3 hPa | 0 mm | - | - | - |
| 1777517942 | 9.44° C | 78% | 1010.3 hPa | 0 mm | - | - | - |
| 1777517341 | 9.44° C | 78% | 1010.6 hPa | 0 mm | - | - | - |
| 1777516741 | 9.44° C | 78% | 1010.6 hPa | 0 mm | - | - | - |
| 1777516141 | 10° C | 76% | 1011 hPa | 0 mm | - | - | - |
| 1777515542 | 10° C | 76% | 1011.3 hPa | 0 mm | - | - | - |
| 1777514941 | 10° C | 75% | 1011 hPa | 0 mm | - | - | - |
| 1777514341 | 10.56° C | 73% | 1011 hPa | 0 mm | - | - | - |
* Rain latest hour (hover to see other rain measurements)
** Current wind speed in m/s (hover to see current wind gust speed)